Location: *
(34.0486°S, 61.7880°E)
Time: 16:48:06
(UTC+00:00)

CZ-4 R/B - Pass Details

Date: 01 April 2020
Orbit: 532 x 598 km, 97.8° (Epoch: 26 May)

Event Time Altitude Azimuth Distance (km) Brightness Sun altitude
Rises 14:21:18 0° 154° (SSE) 2,831 4.7 -7.8°
Reaches altitude 10° 14:23:49 10° 140° (SE) 1,910 3.7 -8.4°
Maximum altitude 14:27:14 24° 84° (E) 1,193 2.4 -9.1°
Drops below altitude 10° 14:30:32 10° 29° (NNE) 1,853 3.7 -9.8°
Sets 14:32:56 0° 15° (NNE) 2,726 4.7 -10.3°
